RH
81 94 100 97 90 84 78 75 79 65 72 70 76 74 64 40 28 37 40 48 46 38 31 26 24 22 18 14 14 15 17 22 33 39 39 27 20 26 43 91 88 87 98
86 99 99 97 99 89 90 85 73 84 83 85 95 78 53 26 28 34 36 30 24 19 17 17 16 16 15 15 14 13 13 14 14 18 25 34 41 33 24 28 65 84 85
80 76 96 96 99 92 95 86 89 91 88 99 88 61 33 22 18 17 17 19 18 18 18 18 18 19 18 19 19 18 16 14 14 14 14 15 16 28 38 38 30 47 62
82 93 93 100 100 95 94 95 100 94 100 96 81 49 22 18 17 18 19 19 19 19 19 20 20 20 19 19 18 17 17 16 17 17 16 14 13 13 14 21 36 40 40
81 76 78 85 84 90 94 100 100 100 100 94 67 23 20 19 19 20 21 21 21 21 22 22 22 22 21 20 19 19 20 20 19 18 16 16 15 15 14 13 13 16 30
44 49 64 76 88 100 100 100 100 100 97 80 33 22 20 21 22 22 22 22 23 23 23 23 25 24 22 20 20 20 20 20 20 19 18 16 15 14 13 14 13 12 11
63 76 90 100 100 100 100 100 100 100 85 50 26 23 23 24 26 26 26 26 24 24 25 25 26 26 24 21 19 19 19 18 16 15 13 13 13 13 12 12 12 12 12
68 88 100 100 100 100 100 100 100 90 52 29 27 27 26 27 28 29 29 27 25 26 25 23 24 26 25 24 21 21 18 15 13 12 12 13 13 13 13 14 13 13 13
86 97 100 100 100 100 100 100 81 44 34 30 29 29 32 34 36 38 33 31 32 28 27 27 27 24 24 22 19 17 14 12 13 16 16 18 19 18 18 18 18 18 17
89 100 100 100 100 100 98 77 42 35 32 29 31 34 34 35 36 40 46 42 37 35 33 31 27 24 23 21 19 15 14 14 14 15 15 16 16 17 19 21 22 22 21
99 100 100 100 99 91 56 40 37 36 34 35 38 37 37 36 36 40 41 39 35 33 32 28 25 23 20 19 16 15 16 19 20 22 26 30 30 29 29 29 29 27 24
100 100 100 91 78 48 41 38 40 42 42 44 42 45 46 48 45 38 36 35 34 33 31 27 24 22 21 17 17 20 22 27 32 32 33 32 30 28 26 22 21 21 23
100 87 70 59 50 43 41 42 45 50 46 41 37 41 42 41 40 40 34 30 27 25 24 22 24 21 19 19 22 30 39 40 35 34 35 34 30 26 22 21 20 18 16
79 63 48 45 45 46 48 52 53 45 40 40 41 43 42 40 40 31 28 25 23 22 22 23 18 16 18 24 36 33 29 27 29 30 26 22 19 17 15 13 11 10 10
60 50 48 49 49 45 48 50 46 44 44 45 46 46 44 38 32 28 24 21 20 21 21 17 18 20 30 34 31 25 25 23 22 18 16 13 9 6 5 4 4 4 4
51 49 49 50 47 44 49 46 45 46 47 46 47 47 42 34 29 24 22 23 22 17 14 24 33 32 27 22 18 18 15 12 10 7 5 4 4 4 3 3 3 2 2
52 52 51 48 46 51 48 48 48 48 49 48 50 45 35 29 25 23 23 20 16 17 24 37 36 33 25 20 20 13 8 5 5 4 4 3 2 2 2 2 2 2 2
55 53 52 49 50 47 46 50 51 52 51 55 44 35 32 27 25 23 19 16 23 31 29 28 31 27 27 22 13 8 6 4 4 3 3 2 2 3 2 2 2 2 2
59 56 51 51 49 47 51 53 55 54 57 47 42 35 30 27 22 18 19 27 34 35 28 23 27 31 23 12 7 6 4 4 3 3 3 2 3 2 2 2 2 2 2
62 57 52 51 52 55 57 57 58 61 52 45 36 32 25 20 18 23 29 36 39 32 27 26 27 20 11 6 6 5 4 4 3 3 2 2 2 2 2 2 2 2 2
67 57 56 56 57 64 61 64 61 54 43 38 30 23 20 21 25 34 36 36 28 26 26 25 17 7 6 6 5 4 4 3 3 3 2 2 2 2 2 2 2 2 2
72 64 64 70 65 66 68 57 48 42 39 26 23 22 25 32 35 41 38 31 30 24 22 11 7 6 5 4 4 4 4 3 2 3 3 2 3 2 3 3 2 2 2
78 76 74 75 70 60 54 46 45 33 25 24 25 34 39 33 40 39 33 32 28 20 9 7 6 5 5 5 4 4 3 3 4 5 4 2 4 3 5 5 5 5 4
82 79 71 63 60 52 50 42 28 27 28 27 44 35 34 40 39 32 31 29 23 10 7 6 5 5 5 4 4 3 4 3 3 5 8 6 6 6 6 6 6 6 5
75 69 66 55 53 50 33 26 26 28 33 50 34 36 40 43 34 28 26 20 9 7 5 5 5 5 4 4 4 5 4 4 4 4 8 8 10 8 8 8 7 8 8
72 63 59 52 36 32 30 29 28 47 50 38 38 42 42 34 29 26 18 9 7 5 5 5 5 4 4 4 5 6 7 6 7 6 9 8 10 10 7 9 9 9 7
Wind_Speed
77 74 75 73 72 73 73 72 72 68 67 64 63 63 63 60 58 50 45 44 44 44 46 47 49 49 49 49 49 50 51 51 51 50 51 53 56 61 65 68 69 70 69
77 74 75 76 75 74 75 74 69 69 68 64 62 60 62 55 48 46 45 45 46 46 47 48 49 51 52 52 54 54 54 55 55 57 58 57 57 59 63 66 75 75 74
76 77 76 76 78 76 73 72 68 68 66 64 60 57 57 47 46 45 46 47 48 50 50 50 52 54 55 56 56 58 59 61 62 63 63 63 63 65 66 67 71 76 80
71 69 70 70 70 70 70 68 66 67 66 62 59 56 51 47 48 48 51 52 53 54 55 56 58 60 62 63 64 65 66 67 69 70 69 69 70 72 72 72 74 75 80
63 62 62 64 65 66 66 65 64 64 65 61 57 51 50 49 50 53 54 57 59 59 59 60 63 65 68 70 71 73 74 76 77 79 79 80 80 79 79 80 81 81 81
57 59 60 62 61 64 62 63 62 62 61 57 52 51 50 52 54 58 60 63 64 65 67 69 71 74 76 77 79 81 83 84 85 87 88 89 89 89 90 89 89 88 88
52 56 58 57 57 59 62 63 58 57 54 53 53 53 54 56 60 64 66 67 69 73 75 76 80 82 84 85 88 90 93 94 95 98 99 99 99 99 98 97 97 96 95
52 55 56 55 56 59 59 56 54 52 52 52 55 57 59 62 66 69 71 73 76 79 82 84 88 90 92 96 98 99 100 102 104 102 99 98 98 100 100 100 101 102 102
53 53 52 52 53 55 55 51 50 50 52 54 58 60 64 67 71 77 80 82 83 86 88 92 96 97 101 104 106 107 108 105 97 94 95 95 96 96 96 98 99 101 103
52 50 49 49 52 52 50 50 50 53 54 57 61 65 68 70 74 78 87 90 91 94 97 102 106 109 112 114 115 115 104 100 100 101 100 100 100 101 102 103 104 103 104
51 49 50 51 51 48 49 51 53 54 58 62 66 70 73 76 79 79 80 90 95 100 103 107 112 115 119 121 119 110 109 109 105 100 97 97 97 96 96 97 99 101 104
49 51 50 50 50 49 51 54 56 60 64 67 71 75 78 82 85 84 84 87 92 99 106 111 117 122 125 122 116 117 112 106 102 101 101 102 103 104 105 104 103 102 103
51 51 51 52 49 50 54 57 61 65 68 72 76 79 83 86 88 90 92 92 92 99 105 110 118 123 118 115 116 109 104 105 107 109 112 114 116 117 117 118 118 117 116
52 52 52 50 51 54 58 62 66 70 73 78 81 85 88 90 94 96 98 99 100 105 109 115 122 114 116 110 104 103 105 109 113 118 123 125 125 125 126 125 123 122 122
51 52 52 52 55 59 62 66 71 74 79 82 86 90 93 96 99 102 104 108 110 108 111 114 112 112 105 105 109 111 115 118 122 125 124 124 122 121 120 118 116 116 116
50 53 54 56 60 63 67 71 75 79 83 87 92 97 99 101 104 106 109 113 118 121 105 109 100 102 106 112 114 118 121 121 123 119 111 105 105 106 105 105 104 103 103
53 55 58 61 63 67 72 75 79 84 89 94 98 100 101 103 107 110 115 120 117 117 108 94 103 108 115 120 123 121 119 112 104 102 99 98 97 94 94 93 93 93 93
56 59 62 65 68 72 77 81 85 90 94 98 99 101 103 107 112 116 120 112 116 108 108 106 109 117 124 129 126 118 109 101 96 90 89 89 86 86 86 86 85 85 85
59 63 65 68 73 77 81 85 90 95 98 99 101 104 109 113 117 117 112 109 103 108 114 117 119 128 131 128 115 106 98 92 87 84 83 80 77 80 78 77 78 78 78
63 66 69 73 78 82 86 90 95 98 100 103 106 110 114 117 112 113 103 101 108 114 117 122 129 133 127 113 103 93 92 85 81 79 79 72 71 70 68 69 71 71 71
65 69 73 79 82 86 90 94 97 101 103 107 112 116 114 111 108 98 101 109 116 120 123 128 131 118 108 100 94 88 82 81 76 74 74 64 66 60 61 63 64 65 65
68 72 76 81 85 89 93 96 98 103 107 112 112 109 111 99 94 102 111 118 124 127 128 125 113 104 99 93 89 82 79 74 71 63 71 56 60 52 54 56 58 58 58
70 74 79 83 87 90 94 98 102 108 111 108 109 101 93 95 103 110 117 124 130 132 125 111 102 97 92 85 83 78 71 66 61 59 65 53 52 45 48 49 51 52 54
73 77 81 85 89 93 97 103 107 106 106 104 95 92 95 102 112 117 121 127 132 124 110 102 95 88 83 79 74 70 66 62 54 46 55 54 49 41 43 43 43 44 47
76 80 84 88 93 97 104 105 100 103 97 90 93 97 104 112 118 121 125 127 120 109 101 94 86 80 76 70 67 64 59 53 52 42 44 44 45 42 39 38 40 38 40
80 84 88 92 97 102 99 101 99 90 86 90 96 104 112 118 121 126 125 115 106 101 93 85 79 73 68 62 57 54 52 48 46 47 37 41 37 38 37 30 33 33 33
Wind_Direction
272 272 273 274 277 280 282 285 287 290 291 296 299 299 298 298 296 292 292 292 293 295 296 296 297 298 298 297 295 294 294 293 291 288 285 282 275 267 260 255 255 257 257
272 275 274 274 276 278 282 285 286 288 289 294 296 296 295 293 293 292 293 295 296 297 298 298 298 297 296 296 296 295 293 291 289 287 285 283 279 275 270 265 258 257 258
273 274 274 275 275 279 282 284 285 286 288 291 291 292 292 289 291 293 295 295 295 294 294 294 294 294 293 293 292 292 292 290 289 287 285 283 280 278 276 271 266 261 258
273 274 275 275 277 278 278 280 282 284 285 288 288 288 287 290 291 292 293 293 292 291 293 294 295 294 293 293 293 291 290 289 287 285 283 282 280 278 276 272 270 267 263
274 275 274 275 275 276 277 278 279 280 284 285 285 284 285 288 290 290 289 289 290 291 292 294 294 295 296 296 294 292 292 291 288 286 283 281 279 277 275 274 272 268 266
274 273 270 271 274 275 276 275 277 280 281 281 283 285 287 287 288 287 289 290 290 291 292 293 294 296 296 296 294 292 291 290 288 286 284 281 279 276 275 273 271 269 267
273 271 269 270 271 274 274 274 276 279 279 281 285 287 288 290 290 290 291 290 290 291 293 293 293 295 297 297 295 293 293 292 290 287 285 282 279 276 274 272 270 269 266
275 272 270 270 271 271 272 273 276 278 279 282 285 287 288 290 290 290 290 289 289 291 293 292 292 294 296 297 297 295 294 293 291 288 285 282 279 277 274 272 270 267 264
273 272 270 269 268 270 272 273 276 277 280 283 285 286 287 289 291 291 291 291 292 292 292 293 294 294 295 297 297 296 294 292 288 285 283 280 278 276 274 272 270 268 266
272 269 269 268 269 272 272 275 276 278 282 284 285 286 287 288 289 290 293 293 295 295 297 298 299 298 299 299 300 298 294 291 288 286 283 280 277 274 272 270 269 267 266
269 269 268 270 270 270 274 274 277 281 283 284 285 286 287 289 291 290 290 292 294 296 298 298 299 299 299 300 300 296 295 294 292 289 287 285 283 280 278 275 273 270 267
265 267 268 269 269 272 274 278 280 281 283 285 287 288 290 292 293 292 290 291 292 295 298 300 300 301 301 300 298 297 297 295 294 292 290 288 286 284 281 278 275 272 269
266 269 269 269 271 275 277 280 281 283 285 288 290 291 292 292 293 293 293 293 292 293 295 298 298 298 297 297 296 296 296 294 292 290 289 287 285 283 281 279 276 273 270
266 268 268 270 274 277 279 281 283 285 288 291 293 295 294 294 294 294 295 294 295 297 298 298 297 295 296 296 294 293 291 291 290 289 288 287 286 284 281 279 275 272 269
266 266 269 272 275 279 281 283 286 289 291 295 296 296 296 295 295 296 296 297 297 297 299 297 296 297 296 295 293 293 293 293 292 290 289 287 284 282 278 275 274 272 270
264 268 270 273 277 280 283 287 290 293 295 295 296 297 297 297 297 298 299 300 300 300 298 298 298 297 296 296 297 297 297 296 294 291 288 286 282 279 280 279 276 274 271
266 269 272 276 280 283 287 290 292 294 295 297 297 297 297 298 299 300 301 301 301 301 302 300 299 299 299 300 299 300 299 294 292 290 290 286 284 283 281 278 276 274 272
266 271 275 279 282 286 289 291 293 295 296 297 297 298 300 300 301 302 303 302 304 301 301 301 300 302 303 303 304 303 299 298 295 293 289 286 286 284 281 279 277 274 272
269 273 278 282 285 287 290 292 294 295 297 298 300 301 301 302 303 303 303 303 302 301 301 304 306 305 304 305 305 303 300 298 297 294 290 288 287 283 282 280 278 276 273
272 276 281 284 287 289 291 293 295 296 298 300 301 301 302 303 303 304 304 302 300 300 304 307 308 307 307 306 305 303 301 300 298 295 291 291 287 284 284 281 279 277 275
277 280 283 286 289 290 292 293 296 298 300 301 302 303 303 304 305 305 302 300 302 305 308 308 307 308 306 306 305 304 302 300 298 296 292 292 288 287 283 281 279 278 277
282 283 285 287 289 291 293 296 298 300 301 302 303 303 304 304 305 304 304 304 306 308 308 309 310 309 307 307 305 305 303 300 298 296 293 294 290 289 285 283 281 279 277
283 285 287 289 292 294 296 299 300 302 304 303 303 304 305 305 305 304 305 308 308 310 311 311 311 309 308 307 305 304 302 301 300 300 295 297 291 291 286 284 283 281 280
286 288 291 294 295 297 299 301 303 304 303 304 304 305 306 306 305 306 308 309 309 311 312 311 310 309 308 307 305 304 304 303 300 299 296 300 297 295 289 287 284 282 281
291 293 295 297 298 300 302 303 304 303 304 305 306 308 308 306 306 308 311 311 311 312 312 311 310 309 308 307 306 306 305 305 302 299 294 296 297 297 291 289 285 283 283
294 296 297 299 302 303 303 303 304 305 306 308 308 307 307 307 309 312 313 312 313 312 312 311 310 309 308 307 306 305 305 306 302 300 299 297 296 296 290 285 285 287 281